Location: Gokavaram
(16.9752°N, 81.0696°E)
Time: 11:24:48
(UTC+00:00)

H-2A R/B - Pass Details

Date: 15 May 2026
Orbit: 730 x 828 km, 98.3° (Epoch: 7 June)

Event Time Altitude Azimuth Distance (km) Brightness Sun altitude
Rises 22:12:31 0° 351° (N) 3,361 5.6 -25.0°
Reaches altitude 10° 22:15:19 10° 337° (NNW) 2,427 4.7 -24.4°
Enters shadow 22:17:57 20° 310° (NW) 1,805 3.7 -23.8°
